カタログに戻る

CZ-6A DEB

運用中SSO
NORAD 54384·DEBRIS·🇨🇳 China

打ち上げ Nov 11, 2022 から Taiyuan Satellite Launch Center

Loading…

次のパス (今後24時間)

TLE

最新Source: Space-Track

元期: Sep 14, 2026, 11:34 UTC

1 54384U 22151DG  26257.48254079  .00000814  00000-0  37506-3 0  9993
2 54384  98.7603 273.1487 0034098 278.4321  81.2993 14.23536495198532

AllMySatでCZ-6A DEBをリアルタイム追跡

Download on the App Store